Location: Fours
(44.3167°N, 6.7000°E)
Time: 11:34:01
(UTC+00:00)

Meteor 1-10 Rocket - Pass Details

Date: 30 November 2020
Orbit: 836 x 910 km, 81.3° (Epoch: 26 January)

Event Time Altitude Azimuth Distance (km) Brightness Sun altitude
Rises 18:22:14 0° 193° (SSW) 3,431 7.6 -25.6°
Reaches altitude 10° 18:24:40 10° 195° (SSW) 2,488 6.9 -26.0°
Maximum altitude 18:30:19 77° 281° (W) 877 4.3 -27.0°
Enters shadow 18:32:46 35° 1° (N) 1,342 5.1 -27.4°
